This demonstration page uses our WeatherBlox Daily Observations layout. Learn more.

Left ArrowRight Arrow

39.51506, -84.39828

Hourly Observations for October 18, 2018

Temp ( °F °C ) Dew Point ( °F °C ) Humidity (%) Winds ( mph kmh ) Pressure ( in mb ) Visibility ( mi km ) Precip ( " mm )
12:15 am 00:15 Clear 39 4.1 32 0.2 76 76 Calm 30.5 1033 10 16.0934 0 0
12:35 am 00:35 Clear 39 3.8 32 0.2 78 78 Calm 30.5 1033 10 16.0934 0 0
12:55 am 00:55 Clear 38 3.6 33 0.6 81 81 Calm 30.5 1033 10 16.0934 0 0
1:15 am 01:15 Clear 38 3.5 33 0.5 81 81 Calm 30.5 1033 10 16.0934 0 0
1:35 am 01:35 Clear 38 3.1 33 0.5 83 83 Calm 30.53 1034 10 16.0934 0 0
1:55 am 01:55 Clear 36 2.3 33 0.5 88 88 Calm 30.53 1034 10 16.0934 0 0
2:15 am 02:15 Clear 36 2.2 34 0.9 91 91 Calm 30.53 1034 10 16.0934 0 0
2:35 am 02:35 Clear 34 1.1 33 0.5 96 96 Calm 30.5 1033 10 16.0934 0 0
2:55 am 02:55 Clear 33 0.6 32 0.2 97 97 Calm 30.5 1033 10 16.0934 0 0
3:15 am 03:15 Clear 32 0.1 31 -0.4 96 96 N 3 6 30.5 1033 10 16.0934 0 0
3:35 am 03:35 Clear 33 0.7 32 0 95 95 Calm 30.5 1033 10 16.0934 0 0
3:55 am 03:55 Clear 33 0.4 31 -0.3 95 95 Calm 30.53 1034 10 16.0934 0 0
4:15 am 04:15 Clear 33 0.5 32 0 96 96 Calm 30.53 1034 10 16.0934 0 0
4:35 am 04:35 Clear 32 0 31 -0.3 98 98 Calm 30.53 1034 10 16.0934 0 0
4:55 am 04:55 Clear with Mist and Fog 31 -0.3 31 -0.5 99 99 Calm 30.53 1034 2 3.21868 0 0
5:15 am 05:15 Clear with Mist and Fog 32 -0.2 31 -0.3 99 99 Calm 30.53 1034 7 11.26538 0 0
5:35 am 05:35 Clear 30 -1.3 29 -1.5 99 99 Calm 30.56 1035 7 11.26538 0 0
5:55 am 05:55 Clear 30 -0.9 30 -1 99 99 Calm 30.56 1035 7 11.26538 0 0
6:15 am 06:15 Clear 31 -0.8 30 -1 99 99 N 3 6 30.56 1035 10 16.0934 0 0
6:35 am 06:35 Clear 30 -1 30 -1.3 98 98 Calm 30.56 1035 10 16.0934 0 0
6:55 am 06:55 Clear 30 -1.2 29 -1.7 96 96 Calm 30.56 1035 10 16.0934 0 0
7:15 am 07:15 Clear 30 -1.2 29 -1.6 97 97 Calm 30.56 1035 10 16.0934 0 0
7:35 am 07:35 Cloudy 30 -1.1 29 -1.5 97 97 Calm 30.56 1035 10 16.0934 0 0
7:55 am 07:55 Cloudy 30 -0.9 29 -1.4 96 96 Calm 30.59 1036 10 16.0934 0 0
8:15 am 08:15 Cloudy 31 -0.8 30 -1.2 97 97 Calm 30.56 1035 10 16.0934 0 0
8:35 am 08:35 Cloudy 31 -0.6 30 -1.1 96 96 Calm 30.56 1035 7 11.26538 0 0
8:55 am 08:55 Cloudy with Fog 32 0 32 -0.2 99 99 Calm 30.59 1036 0.25 0.402335 0 0
9:15 am 09:15 Cloudy with Fog 35 1.5 34 1.3 99 99 Calm 30.59 1036 0.5 0.80467 0 0
9:35 am 09:35 Sunny 37 2.6 36 2.1 97 97 Calm 30.59 1036 10 16.0934 0 0
9:55 am 09:55 Sunny 38 3.6 36 2.2 91 91 Calm 30.59 1036 10 16.0934 0 0
10:15 am 10:15 Sunny 41 5.2 35 1.7 78 78 Calm 30.59 1036 10 16.0934 0 0
10:35 am 10:35 Sunny 44 6.4 30 -0.9 60 60 Calm 30.59 1036 10 16.0934 0 0
10:55 am 10:55 Sunny 45 7.3 31 -0.5 58 58 NE 3 6 30.59 1036 10 16.0934 0 0
11:15 am 11:15 Sunny 48 8.7 32 0 55 55 Calm 30.59 1036 10 16.0934 0 0
11:35 am 11:35 Sunny 49 9.2 31 -0.8 50 50 E 3 6 30.56 1035 10 16.0934 0 0
11:55 am 11:55 Sunny 48 9 29 -1.9 47 47 Calm 30.56 1035 10 16.0934 0 0
12:15 pm 12:15 Sunny 49 9.7 31 -0.8 48 48 NNE 3 6 30.56 1035 10 16.0934 0 0
12:35 pm 12:35 Sunny 50 9.9 31 -0.6 48 48 SE 3 6 30.56 1035 10 16.0934 0 0
12:55 pm 12:55 Sunny 51 10.6 30 -1.2 44 44 Calm 30.56 1035 10 16.0934 0 0
1:15 pm 13:15 Sunny 51 10.3 29 -1.8 43 43 Calm 30.56 1035 10 16.0934 0 0
1:35 pm 13:35 Sunny 53 11.4 31 -0.7 43 43 NE 5 7 30.53 1034 10 16.0934 0 0
1:55 pm 13:55 Sunny 53 11.4 29 -1.4 41 41 Calm 30.53 1034 10 16.0934 0 0
2:15 pm 14:15 Sunny 54 12 31 -0.3 43 43 E 5 7 30.5 1033 10 16.0934 0 0
2:35 pm 14:35 Sunny 54 12.1 30 -1 41 41 Calm 30.5 1033 10 16.0934 0 0
2:55 pm 14:55 Sunny 54 12.1 31 -0.3 43 43 SSW 6 9 30.5 1033 10 16.0934 0 0
3:15 pm 15:15 Sunny 54 12.4 31 -0.8 40 40 W 3 6 30.5 1033 10 16.0934 0 0
3:35 pm 15:35 Sunny 55 12.9 31 -0.5 40 40 Calm 30.48 1032 10 16.0934 0 0
3:55 pm 15:55 Sunny 55 12.6 30 -1.1 39 39 Calm 30.48 1032 10 16.0934 0 0
4:15 pm 16:15 Sunny 55 12.5 30 -1 40 40 Calm 30.48 1032 10 16.0934 0 0
4:35 pm 16:35 Sunny 54 12.4 30 -1.2 39 39 SSW 3 6 30.48 1032 10 16.0934 0 0
4:55 pm 16:55 Sunny 55 12.6 30 -1.2 39 39 Calm 30.45 1031 10 16.0934 0 0
5:15 pm 17:15 Sunny 56 13.2 31 -0.4 39 39 NE 3 6 30.45 1031 10 16.0934 0 0
5:35 pm 17:35 Sunny 55 12.9 31 -0.3 41 41 Calm 30.45 1031 10 16.0934 0 0
5:55 pm 17:55 Sunny 54 12.3 30 -1 40 40 Calm 30.45 1031 10 16.0934 0 0
6:15 pm 18:15 Sunny 54 12.1 31 -0.3 43 43 Calm 30.45 1031 10 16.0934 0 0
6:35 pm 18:35 Sunny 53 11.6 30 -0.9 42 42 Calm 30.45 1031 7 11.26538 0 0
6:55 pm 18:55 Clear 46 8 38 3.1 71 71 Calm 30.45 1031 10 16.0934 0 0
7:15 pm 19:15 Clear 43 6.2 37 2.8 79 79 Calm 30.48 1032 10 16.0934 0 0
7:35 pm 19:35 Clear 43 5.9 38 3.4 84 84 Calm 30.48 1032 10 16.0934 0 0
7:55 pm 19:55 Clear 42 5.7 38 3.5 86 86 Calm 30.48 1032 10 16.0934 0 0
8:15 pm 20:15 Clear 41 5.2 38 3.2 87 87 Calm 30.48 1032 10 16.0934 0 0
8:35 pm 20:35 Clear 40 4.5 37 2.7 88 88 Calm 30.48 1032 10 16.0934 0 0
8:55 pm 20:55 Clear 38 3.5 36 2.3 92 92 Calm 30.48 1032 10 16.0934 0 0
9:15 pm 21:15 Clear 39 4 37 2.5 90 90 Calm 30.48 1032 10 16.0934 0 0
9:35 pm 21:35 Clear 38 3.2 36 2 92 92 Calm 30.48 1032 10 16.0934 0 0
9:55 pm 21:55 Clear 38 3.4 36 2.2 92 92 Calm 30.48 1032 10 16.0934 0 0
10:15 pm 22:15 Clear 37 3 35 1.9 93 93 Calm 30.45 1031 10 16.0934 0 0
10:35 pm 22:35 Clear 37 2.6 36 2 96 96 Calm 30.45 1031 10 16.0934 0 0
10:55 pm 22:55 Clear 36 2.3 35 1.8 97 97 Calm 30.45 1031 10 16.0934 0 0
11:15 pm 23:15 Clear 36 2.2 35 1.9 98 98 Calm 30.45 1031 10 16.0934 0 0
11:35 pm 23:35 Clear 36 2.1 35 1.6 97 97 Calm 30.45 1031 10 16.0934 0 0
11:55 pm 23:55 Clear 35 1.6 34 1.3 98 98 Calm 30.45 1031 10 16.0934 0 0

Powered by AerisWeather